SWA1661 KDEN-KCLE

Flight info

Callsign SWA1661
Flight time 2h 7m
Altitude 37000
Route EEONS8 WYNDM DCT HCT DCT LNK J60 JOT DCT ZIINE DCT BENJO BRWNZ4
Aircraft B38M/M-VGDW/C

Departure

Time 2026-05-06 18:36
Airport Denver International Airport (KDEN)

Arrival

Time 2026-05-06 20:43
Airport Cleveland Hopkins International Airport (KCLE)
Time Latitude Longitude Altitude Speed Heading
2026-05-06 18:13 39.86256 -104.67736 5379 ft 0 kts
2026-05-06 18:26 39.86254 -104.67736 5379 ft 2 kts
2026-05-06 18:26 39.86229 -104.67736 5379 ft 4 kts
2026-05-06 18:26 39.86202 -104.67736 5377 ft 4 kts
2026-05-06 18:27 39.86175 -104.67736 5378 ft 4 kts
2026-05-06 18:27 39.86166 -104.67736 5378 ft 1 kts
2026-05-06 18:29 39.86185 -104.67714 5376 ft 8 kts 56°
2026-05-06 18:29 39.86193 -104.67609 5379 ft 16 kts 92°
2026-05-06 18:29 39.86160 -104.67473 5379 ft 16 kts 137°
2026-05-06 18:30 39.86132 -104.67358 5380 ft 12 kts 91°
2026-05-06 18:30 39.86130 -104.67261 5380 ft 10 kts 90°
2026-05-06 18:30 39.86130 -104.67154 5380 ft 15 kts 90°
2026-05-06 18:30 39.86129 -104.66985 5380 ft 20 kts 90°
2026-05-06 18:31 39.86127 -104.66813 5380 ft 18 kts 91°
2026-05-06 18:31 39.86126 -104.66667 5380 ft 15 kts 90°
2026-05-06 18:31 39.86113 -104.66542 5378 ft 14 kts 106°
2026-05-06 18:31 39.86105 -104.66414 5382 ft 13 kts 90°
2026-05-06 18:32 39.86105 -104.66345 5383 ft 10 kts 90°
2026-05-06 18:32 39.86112 -104.66273 5384 ft 9 kts 63°
2026-05-06 18:32 39.86196 -104.66227 5384 ft 20 kts 360°
2026-05-06 18:32 39.86365 -104.66226 5384 ft 28 kts
2026-05-06 18:33 39.86560 -104.66224 5383 ft 28 kts
2026-05-06 18:33 39.86746 -104.66223 5376 ft 27 kts
2026-05-06 18:33 39.86930 -104.66220 5372 ft 26 kts
2026-05-06 18:33 39.87106 -104.66218 5368 ft 25 kts
2026-05-06 18:34 39.87274 -104.66216 5365 ft 24 kts
2026-05-06 18:34 39.87435 -104.66213 5363 ft 23 kts
2026-05-06 18:34 39.87583 -104.66211 5365 ft 19 kts 360°
2026-05-06 18:34 39.87704 -104.66210 5364 ft 12 kts
2026-05-06 18:35 39.87754 -104.66144 5362 ft 11 kts 89°
2026-05-06 18:35 39.87754 -104.66125 5362 ft 1 kts 91°
2026-05-06 18:35 39.87752 -104.65817 5358 ft 72 kts 90°
2026-05-06 18:35 39.87746 -104.64849 5349 ft 139 kts 91°
2026-05-06 18:36 39.87729 -104.63372 5548 ft 179 kts 91°
2026-05-06 18:36 39.87691 -104.61687 6379 ft 191 kts 89°
2026-05-06 18:36 39.87691 -104.60000 7424 ft 191 kts 90°
2026-05-06 18:36 39.87728 -104.58172 7976 ft 216 kts 81°
2026-05-06 18:37 39.88123 -104.56197 8546 ft 241 kts 75°
2026-05-06 18:37 39.88520 -104.53984 9297 ft 261 kts 77°
2026-05-06 18:37 39.88940 -104.51594 10077 ft 280 kts 77°
2026-05-06 18:37 39.89395 -104.49039 10746 ft 299 kts 76°
2026-05-06 18:38 39.89881 -104.46332 11506 ft 314 kts 76°
2026-05-06 18:38 39.90385 -104.43524 12388 ft 322 kts 76°
2026-05-06 18:38 39.90898 -104.40667 13427 ft 326 kts 76°
2026-05-06 18:38 39.91421 -104.37756 14330 ft 333 kts 76°
2026-05-06 18:39 39.91952 -104.34791 15134 ft 340 kts 76°
2026-05-06 18:39 39.92495 -104.31757 15904 ft 347 kts 76°
2026-05-06 18:39 39.93049 -104.28660 16677 ft 355 kts 76°
2026-05-06 18:40 39.94188 -104.22274 18168 ft 369 kts 76°
2026-05-06 18:40 39.94772 -104.18987 18840 ft 376 kts 76°
2026-05-06 18:40 39.95366 -104.15645 19480 ft 381 kts 76°
2026-05-06 18:40 39.95959 -104.12298 20119 ft 387 kts 76°
2026-05-06 18:41 39.96575 -104.08818 20772 ft 392 kts 76°
2026-05-06 18:41 39.97183 -104.05376 21389 ft 397 kts 76°
2026-05-06 18:41 39.97806 -104.01841 22001 ft 403 kts 76°
2026-05-06 18:41 39.98435 -103.98265 22613 ft 408 kts 76°
2026-05-06 18:42 39.99074 -103.94627 23092 ft 415 kts 76°
2026-05-06 18:42 39.99719 -103.90945 23183 ft 416 kts 76°
2026-05-06 18:42 40.00363 -103.87267 23194 ft 416 kts 77°
2026-05-06 18:42 40.01004 -103.83592 23196 ft 416 kts 77°
2026-05-06 18:43 40.01645 -103.79914 23194 ft 417 kts 77°
2026-05-06 18:43 40.02272 -103.76215 23715 ft 418 kts 77°
2026-05-06 18:43 40.02883 -103.72487 24189 ft 423 kts 77°
2026-05-06 18:43 40.03501 -103.68724 24759 ft 425 kts 77°
2026-05-06 18:44 40.04121 -103.64948 25321 ft 427 kts 77°
2026-05-06 18:44 40.04743 -103.61153 25870 ft 429 kts 77°
2026-05-06 18:44 40.05368 -103.57334 26411 ft 431 kts 77°
2026-05-06 18:44 40.05993 -103.53501 26947 ft 433 kts 77°
2026-05-06 18:45 40.06613 -103.49693 27463 ft 435 kts 77°
2026-05-06 18:45 40.07242 -103.45817 27975 ft 438 kts 77°
2026-05-06 18:45 40.07874 -103.41920 28472 ft 440 kts 77°
2026-05-06 18:45 40.08508 -103.37997 28968 ft 443 kts 77°
2026-05-06 18:46 40.09145 -103.34053 29444 ft 445 kts 77°
2026-05-06 18:46 40.09783 -103.30087 29911 ft 448 kts 77°
2026-05-06 18:46 40.10424 -103.26098 30354 ft 450 kts 77°
2026-05-06 18:46 40.11067 -103.22084 30707 ft 453 kts 77°
2026-05-06 18:47 40.11713 -103.18038 31028 ft 456 kts 77°
2026-05-06 18:47 40.12363 -103.13968 31353 ft 460 kts 77°
2026-05-06 18:47 40.13016 -103.09863 31674 ft 463 kts 77°
2026-05-06 18:47 40.13673 -103.05724 31996 ft 466 kts 77°
2026-05-06 18:48 40.14332 -103.01560 32306 ft 470 kts 77°
2026-05-06 18:48 40.14994 -102.97364 32615 ft 473 kts 77°
2026-05-06 18:48 40.15660 -102.93139 32930 ft 476 kts 77°
2026-05-06 18:48 40.16329 -102.88883 33224 ft 480 kts 77°
2026-05-06 18:49 40.17000 -102.84602 33529 ft 483 kts 77°
2026-05-06 18:49 40.17666 -102.80340 33828 ft 486 kts 77°
2026-05-06 18:49 40.18343 -102.76000 34124 ft 489 kts 77°
2026-05-06 18:49 40.19023 -102.71631 34382 ft 492 kts 77°
2026-05-06 18:50 40.19704 -102.67239 34648 ft 494 kts 77°
2026-05-06 18:50 40.20385 -102.62837 34965 ft 495 kts 77°
2026-05-06 18:50 40.21066 -102.58423 35318 ft 494 kts 77°
2026-05-06 18:50 40.21744 -102.54016 35660 ft 495 kts 77°
2026-05-06 18:51 40.22422 -102.49599 35990 ft 495 kts 77°
2026-05-06 18:51 40.23098 -102.45183 36331 ft 495 kts 77°
2026-05-06 18:51 40.23772 -102.40770 36655 ft 495 kts 77°
2026-05-06 18:51 40.24444 -102.36353 36985 ft 494 kts 77°
2026-05-06 18:52 40.25115 -102.31939 37206 ft 496 kts 78°
2026-05-06 18:52 40.26472 -102.22968 37190 ft 508 kts 78°
2026-05-06 18:53 40.27848 -102.13816 37199 ft 515 kts 78°
2026-05-06 18:53 40.29215 -102.04673 37202 ft 515 kts 78°
2026-05-06 18:54 40.30585 -101.95462 37200 ft 515 kts 78°
2026-05-06 18:54 40.31950 -101.86228 37193 ft 516 kts 78°
2026-05-06 18:55 40.33307 -101.76994 37192 ft 516 kts 78°
2026-05-06 18:55 40.34660 -101.67738 37188 ft 517 kts 78°
2026-05-06 18:56 40.36007 -101.58478 37192 ft 517 kts 78°
2026-05-06 18:56 40.37348 -101.49206 37192 ft 518 kts 78°
2026-05-06 18:57 40.38680 -101.39922 37189 ft 518 kts 79°
2026-05-06 18:57 40.40009 -101.30636 37197 ft 518 kts 79°
2026-05-06 18:58 40.41324 -101.21398 37199 ft 519 kts 79°
2026-05-06 18:58 40.42642 -101.12080 37203 ft 519 kts 79°
2026-05-06 18:59 40.43952 -101.02760 37203 ft 520 kts 79°
2026-05-06 18:59 40.45254 -100.93424 37203 ft 520 kts 79°
2026-05-06 19:00 40.46472 -100.84071 37187 ft 520 kts 80°
2026-05-06 19:00 40.47690 -100.74695 37186 ft 521 kts 80°
2026-05-06 19:01 40.48904 -100.65309 37190 ft 522 kts 80°
2026-05-06 19:01 40.50112 -100.55897 37185 ft 522 kts 80°
2026-05-06 19:02 40.51305 -100.46546 37187 ft 523 kts 80°
2026-05-06 19:02 40.52501 -100.37108 37179 ft 523 kts 81°
2026-05-06 19:03 40.53689 -100.27667 37181 ft 524 kts 81°
2026-05-06 19:03 40.54870 -100.18218 37180 ft 525 kts 81°
2026-05-06 19:04 40.56047 -100.08735 37179 ft 525 kts 81°
2026-05-06 19:04 40.57217 -99.99244 37174 ft 525 kts 81°
2026-05-06 19:05 40.58379 -99.89751 37171 ft 526 kts 81°
2026-05-06 19:05 40.59534 -99.80243 37163 ft 526 kts 81°
2026-05-06 19:06 40.60682 -99.70732 37166 ft 527 kts 81°
2026-05-06 19:06 40.61824 -99.61198 37166 ft 528 kts 81°
2026-05-06 19:07 40.62952 -99.51717 37164 ft 528 kts 81°
2026-05-06 19:07 40.64082 -99.42151 37159 ft 529 kts 81°
2026-05-06 19:08 40.65205 -99.32564 37160 ft 530 kts 81°
2026-05-06 19:08 40.66323 -99.22956 37165 ft 531 kts 82°
2026-05-06 19:09 40.67434 -99.13340 37166 ft 531 kts 82°
2026-05-06 19:09 40.68537 -99.03712 37164 ft 532 kts 82°
2026-05-06 19:10 40.69628 -98.94127 37165 ft 533 kts 82°
2026-05-06 19:10 40.70718 -98.84467 37167 ft 533 kts 82°
2026-05-06 19:11 40.71803 -98.74780 37163 ft 534 kts 82°
2026-05-06 19:11 40.72880 -98.65097 37166 ft 534 kts 82°
2026-05-06 19:12 40.73949 -98.55395 37166 ft 535 kts 82°
2026-05-06 19:12 40.75014 -98.45665 37165 ft 536 kts 82°
2026-05-06 19:13 40.76071 -98.35928 37165 ft 536 kts 82°
2026-05-06 19:13 40.77120 -98.26183 37158 ft 537 kts 83°
2026-05-06 19:14 40.78155 -98.16486 37159 ft 538 kts 83°
2026-05-06 19:14 40.79190 -98.06709 37156 ft 538 kts 83°
2026-05-06 19:15 40.80220 -97.96909 37156 ft 539 kts 83°
2026-05-06 19:15 40.81241 -97.87106 37156 ft 540 kts 83°
2026-05-06 19:16 40.82254 -97.77291 37149 ft 540 kts 83°
2026-05-06 19:16 40.83261 -97.67454 37148 ft 540 kts 83°
2026-05-06 19:17 40.84261 -97.57605 37146 ft 541 kts 83°
2026-05-06 19:17 40.85253 -97.47747 37151 ft 541 kts 83°
2026-05-06 19:18 40.86236 -97.37886 37152 ft 542 kts 83°
2026-05-06 19:18 40.87206 -97.28077 37152 ft 542 kts 83°
2026-05-06 19:19 40.88175 -97.18189 37157 ft 543 kts 84°
2026-05-06 19:19 40.89138 -97.08295 37153 ft 543 kts 84°
2026-05-06 19:20 40.90093 -96.98395 37155 ft 543 kts 84°
2026-05-06 19:20 40.91043 -96.88475 37156 ft 544 kts 84°
2026-05-06 19:21 40.91984 -96.78546 37156 ft 544 kts 84°
2026-05-06 19:21 40.93249 -96.68737 37161 ft 545 kts 79°
2026-05-06 19:22 40.94638 -96.58815 37152 ft 545 kts 80°
2026-05-06 19:22 40.95985 -96.49006 37153 ft 546 kts 80°
2026-05-06 19:23 40.97333 -96.39121 37153 ft 546 kts 80°
2026-05-06 19:23 40.98674 -96.29221 37146 ft 546 kts 81°
2026-05-06 19:24 41.00007 -96.19312 37149 ft 547 kts 81°
2026-05-06 19:24 41.01331 -96.09404 37141 ft 547 kts 81°
2026-05-06 19:25 41.02649 -95.99475 37138 ft 547 kts 81°
2026-05-06 19:25 41.03957 -95.89546 37129 ft 548 kts 81°
2026-05-06 19:26 41.05259 -95.79600 37131 ft 548 kts 81°
2026-05-06 19:26 41.06552 -95.69651 37135 ft 549 kts 81°
2026-05-06 19:27 41.07839 -95.59680 37134 ft 549 kts 81°
2026-05-06 19:27 41.08902 -95.51390 37136 ft 549 kts 81°
2026-05-06 19:28 41.10175 -95.41397 37131 ft 550 kts 81°
2026-05-06 19:28 41.11440 -95.31399 37128 ft 550 kts 81°
2026-05-06 19:29 41.12698 -95.21381 37128 ft 551 kts 81°
2026-05-06 19:29 41.13947 -95.11361 37133 ft 551 kts 81°
2026-05-06 19:30 41.15189 -95.01321 37130 ft 552 kts 82°
2026-05-06 19:30 41.16424 -94.91269 37130 ft 552 kts 82°
2026-05-06 19:31 41.17651 -94.81205 37129 ft 553 kts 82°
2026-05-06 19:31 41.19469 -94.66148 37129 ft 553 kts 82°
2026-05-06 19:32 41.20677 -94.56056 37128 ft 554 kts 82°
2026-05-06 19:32 41.21876 -94.45947 37125 ft 554 kts 82°
2026-05-06 19:33 41.23068 -94.35833 37122 ft 554 kts 82°
2026-05-06 19:33 41.24251 -94.25711 37122 ft 555 kts 82°
2026-05-06 19:34 41.25426 -94.15576 37126 ft 555 kts 82°
2026-05-06 19:34 41.26593 -94.05429 37131 ft 555 kts 82°
2026-05-06 19:35 41.27744 -93.95349 37127 ft 556 kts 82°
2026-05-06 19:35 41.28894 -93.85184 37125 ft 556 kts 82°
2026-05-06 19:36 41.30036 -93.75012 37127 ft 556 kts 82°
2026-05-06 19:36 41.31170 -93.64837 37133 ft 557 kts 83°
2026-05-06 19:37 41.32295 -93.54645 37126 ft 557 kts 83°
2026-05-06 19:37 41.33412 -93.44449 37131 ft 557 kts 83°
2026-05-06 19:38 41.34520 -93.34243 37123 ft 557 kts 83°
2026-05-06 19:38 41.35621 -93.24027 37120 ft 558 kts 83°
2026-05-06 19:39 41.36712 -93.13804 37119 ft 558 kts 83°
2026-05-06 19:39 41.37788 -93.03635 37124 ft 559 kts 83°
2026-05-06 19:40 41.38864 -92.93383 37133 ft 559 kts 83°
2026-05-06 19:40 41.39933 -92.83128 37128 ft 559 kts 83°
2026-05-06 19:41 41.40995 -92.72857 37131 ft 560 kts 83°
2026-05-06 19:41 41.42049 -92.62572 37122 ft 560 kts 83°
2026-05-06 19:42 41.43094 -92.52291 37125 ft 560 kts 83°
2026-05-06 19:42 41.44117 -92.41986 37126 ft 561 kts 83°
2026-05-06 19:43 41.45143 -92.31676 37116 ft 561 kts 84°
2026-05-06 19:43 41.46162 -92.21352 37113 ft 562 kts 84°
2026-05-06 19:44 41.47171 -92.11024 37102 ft 562 kts 84°
2026-05-06 19:44 41.48167 -92.00744 37095 ft 562 kts 84°
2026-05-06 19:45 41.49159 -91.90398 37099 ft 563 kts 84°
2026-05-06 19:45 41.50143 -91.80036 37115 ft 563 kts 84°
2026-05-06 19:46 41.51120 -91.69658 37111 ft 564 kts 84°
2026-05-06 19:46 41.51907 -91.59263 37119 ft 562 kts 90°
2026-05-06 19:47 41.52172 -91.48837 37117 ft 563 kts 91°
2026-05-06 19:47 41.52392 -91.38395 37113 ft 563 kts 91°
2026-05-06 19:48 41.52603 -91.27944 37101 ft 564 kts 91°
2026-05-06 19:48 41.52804 -91.17479 37097 ft 564 kts 91°
2026-05-06 19:49 41.52997 -91.07004 37097 ft 565 kts 91°
2026-05-06 19:49 41.53180 -90.96515 37092 ft 566 kts 91°
2026-05-06 19:50 41.53354 -90.86007 37076 ft 566 kts 91°
2026-05-06 19:50 41.53518 -90.75497 37070 ft 567 kts 91°
2026-05-06 19:51 41.53673 -90.64980 37072 ft 567 kts 91°
2026-05-06 19:51 41.53818 -90.54521 37071 ft 568 kts 91°
2026-05-06 19:52 41.53954 -90.43982 37071 ft 568 kts 91°
2026-05-06 19:52 41.54080 -90.33427 37068 ft 569 kts 91°
2026-05-06 19:53 41.54197 -90.22866 37066 ft 569 kts 92°
2026-05-06 19:53 41.54305 -90.12285 37064 ft 570 kts 92°
2026-05-06 19:54 41.54403 -90.01697 37059 ft 571 kts 92°
2026-05-06 19:54 41.54491 -89.91097 37060 ft 571 kts 92°
2026-05-06 19:55 41.54570 -89.80493 37061 ft 571 kts 92°
2026-05-06 19:55 41.54638 -89.69890 37062 ft 572 kts 92°
2026-05-06 19:56 41.54697 -89.59350 37060 ft 572 kts 92°
2026-05-06 19:56 41.54749 -89.48725 37056 ft 572 kts 92°
2026-05-06 19:57 41.54792 -89.38103 37047 ft 573 kts 92°
2026-05-06 19:57 41.54816 -89.27461 37047 ft 573 kts 92°
2026-05-06 19:58 41.54836 -89.16816 37044 ft 574 kts 93°
2026-05-06 19:58 41.54846 -89.06157 37041 ft 574 kts 93°
2026-05-06 19:59 41.54846 -88.95490 37036 ft 575 kts 93°
2026-05-06 19:59 41.54836 -88.84824 37030 ft 575 kts 93°
2026-05-06 20:00 41.54816 -88.74141 37018 ft 575 kts 93°
2026-05-06 20:00 41.54787 -88.63460 37021 ft 576 kts 93°
2026-05-06 20:01 41.54748 -88.52768 37018 ft 576 kts 93°
2026-05-06 20:01 41.54698 -88.42070 37029 ft 576 kts 94°
2026-05-06 20:02 41.54747 -88.31359 37020 ft 579 kts 85°
2026-05-06 20:02 41.55972 -88.20796 37026 ft 580 kts 82°
2026-05-06 20:03 41.57236 -88.10073 37018 ft 581 kts 82°
2026-05-06 20:03 41.58485 -87.99471 37026 ft 582 kts 82°
2026-05-06 20:04 41.59732 -87.88782 37030 ft 583 kts 82°
2026-05-06 20:04 41.60972 -87.78079 37005 ft 583 kts 82°
2026-05-06 20:05 41.62201 -87.67368 37022 ft 583 kts 82°
2026-05-06 20:05 41.63419 -87.56670 37023 ft 582 kts 82°
2026-05-06 20:06 41.64627 -87.45967 37007 ft 582 kts 83°
2026-05-06 20:06 41.65826 -87.35255 37004 ft 582 kts 83°
2026-05-06 20:07 41.67013 -87.24554 37005 ft 582 kts 83°
2026-05-06 20:07 41.68183 -87.13915 37016 ft 582 kts 83°
2026-05-06 20:08 41.69352 -87.03189 37010 ft 582 kts 83°
2026-05-06 20:08 41.70511 -86.92462 37021 ft 583 kts 83°
2026-05-06 20:09 41.71660 -86.81729 37019 ft 583 kts 83°
2026-05-06 20:09 41.72800 -86.70985 37020 ft 583 kts 83°
2026-05-06 20:10 41.73931 -86.60219 37017 ft 584 kts 83°
2026-05-06 20:10 41.75055 -86.49442 37014 ft 584 kts 83°
2026-05-06 20:11 41.76170 -86.38665 37030 ft 584 kts 83°
2026-05-06 20:11 41.77315 -86.27891 37014 ft 584 kts 82°
2026-05-06 20:12 41.78489 -86.17205 37014 ft 584 kts 83°
2026-05-06 20:12 41.79658 -86.06436 37006 ft 584 kts 83°
2026-05-06 20:13 41.80817 -85.95652 37011 ft 584 kts 83°
2026-05-06 20:13 41.81966 -85.84870 37001 ft 584 kts 83°
2026-05-06 20:14 41.83106 -85.74079 36996 ft 585 kts 83°
2026-05-06 20:14 41.84236 -85.63275 36994 ft 585 kts 83°
2026-05-06 20:15 41.85357 -85.52471 37007 ft 585 kts 83°
2026-05-06 20:15 41.86467 -85.41661 36991 ft 585 kts 83°
2026-05-06 20:16 41.87568 -85.30844 36995 ft 585 kts 83°
2026-05-06 20:16 41.88576 -85.20012 36987 ft 584 kts 86°
2026-05-06 20:17 41.89316 -85.09225 36997 ft 585 kts 86°
2026-05-06 20:17 41.90086 -84.98364 36988 ft 585 kts 86°
2026-05-06 20:18 41.90847 -84.87492 36989 ft 585 kts 86°
2026-05-06 20:18 41.91599 -84.76607 36979 ft 585 kts 86°
2026-05-06 20:19 41.92340 -84.65726 36978 ft 585 kts 86°
2026-05-06 20:19 41.93071 -84.54845 36978 ft 586 kts 86°
2026-05-06 20:20 41.93792 -84.43951 36981 ft 586 kts 86°
2026-05-06 20:20 41.94505 -84.33049 36982 ft 586 kts 86°
2026-05-06 20:21 41.95224 -84.22245 36784 ft 580 kts 86°
2026-05-06 20:21 41.95581 -84.16854 36464 ft 580 kts 86°
2026-05-06 20:21 41.95936 -84.11459 36152 ft 581 kts 86°
2026-05-06 20:22 41.96291 -84.06030 35829 ft 584 kts 86°
2026-05-06 20:22 41.96645 -84.00582 35511 ft 586 kts 86°
2026-05-06 20:22 41.96997 -83.95116 35192 ft 589 kts 86°
2026-05-06 20:22 41.97348 -83.89623 34875 ft 591 kts 86°
2026-05-06 20:23 41.97698 -83.84112 34562 ft 593 kts 86°
2026-05-06 20:23 41.98046 -83.78578 34248 ft 596 kts 86°
2026-05-06 20:23 41.98276 -83.74891 34040 ft 598 kts 86°
2026-05-06 20:23 41.98622 -83.69321 33695 ft 600 kts 86°
2026-05-06 20:24 41.98924 -83.64445 33380 ft 599 kts 86°
2026-05-06 20:24 41.99264 -83.58881 32333 ft 599 kts 87°
2026-05-06 20:24 41.99714 -83.51460 30453 ft 598 kts 87°
2026-05-06 20:24 41.99938 -83.47721 29833 ft 590 kts 87°
2026-05-06 20:25 42.00261 -83.42339 29525 ft 564 kts 87°
2026-05-06 20:25 42.00568 -83.37179 29288 ft 546 kts 87°
2026-05-06 20:25 42.00665 -83.32116 28584 ft 540 kts 98°
2026-05-06 20:25 42.00279 -83.27100 27860 ft 538 kts 100°
2026-05-06 20:26 41.99910 -83.22111 27232 ft 535 kts 99°
2026-05-06 20:26 41.99538 -83.17152 26549 ft 533 kts 99°
2026-05-06 20:26 41.99164 -83.12220 25866 ft 530 kts 99°
2026-05-06 20:26 41.98787 -83.07365 25104 ft 528 kts 99°
2026-05-06 20:27 41.98407 -83.02472 24490 ft 523 kts 99°
2026-05-06 20:27 41.98029 -82.97643 23865 ft 517 kts 99°
2026-05-06 20:27 41.97652 -82.92864 23123 ft 512 kts 99°
2026-05-06 20:27 41.97272 -82.88119 22393 ft 507 kts 99°
2026-05-06 20:28 41.96899 -82.83454 21827 ft 498 kts 99°
2026-05-06 20:28 41.96523 -82.78872 21233 ft 490 kts 101°
2026-05-06 20:28 41.95785 -82.74469 20620 ft 479 kts 110°
2026-05-06 20:28 41.94928 -82.70184 20091 ft 472 kts 110°
2026-05-06 20:29 41.94089 -82.65958 19550 ft 465 kts 110°
2026-05-06 20:29 41.93262 -82.61791 19015 ft 459 kts 110°
2026-05-06 20:29 41.92445 -82.57669 18462 ft 454 kts 110°
2026-05-06 20:29 41.91639 -82.53589 17891 ft 449 kts 110°
2026-05-06 20:30 41.90842 -82.49560 17359 ft 443 kts 110°
2026-05-06 20:30 41.89329 -82.41924 16447 ft 406 kts 110°
2026-05-06 20:30 41.88620 -82.38326 15975 ft 392 kts 110°
2026-05-06 20:31 41.87934 -82.34850 15544 ft 389 kts 110°
2026-05-06 20:31 41.87240 -82.31350 15096 ft 387 kts 110°
2026-05-06 20:31 41.86550 -82.27867 14659 ft 385 kts 110°
2026-05-06 20:31 41.85862 -82.24403 14212 ft 383 kts 110°
2026-05-06 20:32 41.85059 -82.21048 13709 ft 369 kts 122°
2026-05-06 20:32 41.83784 -82.18167 13135 ft 353 kts 128°
2026-05-06 20:32 41.82534 -82.15396 12648 ft 342 kts 128°
2026-05-06 20:32 41.81314 -82.12710 12176 ft 332 kts 127°
2026-05-06 20:33 41.80130 -82.10115 11774 ft 321 kts 127°
2026-05-06 20:33 41.78970 -82.07576 11209 ft 318 kts 127°
2026-05-06 20:33 41.77828 -82.05081 10808 ft 311 kts 126°
2026-05-06 20:33 41.76707 -82.02637 10445 ft 304 kts 126°
2026-05-06 20:34 41.75605 -82.00232 9892 ft 302 kts 126°
2026-05-06 20:34 41.74533 -81.97899 9292 ft 300 kts 125°
2026-05-06 20:34 41.73436 -81.95510 8677 ft 297 kts 124°
2026-05-06 20:34 41.72357 -81.93165 8084 ft 295 kts 124°
2026-05-06 20:35 41.71292 -81.90886 7597 ft 290 kts 125°
2026-05-06 20:35 41.70213 -81.88624 7229 ft 287 kts 125°
2026-05-06 20:35 41.69168 -81.86428 7026 ft 271 kts 124°
2026-05-06 20:35 41.68191 -81.84334 6754 ft 261 kts 124°
2026-05-06 20:36 41.67243 -81.82295 6402 ft 255 kts 124°
2026-05-06 20:36 41.66316 -81.80307 6054 ft 249 kts 124°
2026-05-06 20:36 41.65403 -81.78378 5773 ft 244 kts 124°
2026-05-06 20:36 41.64493 -81.76458 5546 ft 244 kts 124°
2026-05-06 20:37 41.63593 -81.74561 5325 ft 237 kts 124°
2026-05-06 20:37 41.62733 -81.72747 5120 ft 224 kts 123°
2026-05-06 20:37 41.61754 -81.71255 4926 ft 206 kts 146°
2026-05-06 20:37 41.60497 -81.70429 4734 ft 200 kts 168°
2026-05-06 20:38 41.59134 -81.70224 4562 ft 196 kts 187°
2026-05-06 20:38 41.57793 -81.70466 4418 ft 194 kts 195°
2026-05-06 20:38 41.56454 -81.70606 4238 ft 197 kts 176°
2026-05-06 20:38 41.55099 -81.70264 4101 ft 196 kts 172°
2026-05-06 20:39 41.53788 -81.70037 3988 ft 184 kts 192°
2026-05-06 20:39 41.52627 -81.70616 3813 ft 177 kts 211°
2026-05-06 20:39 41.51539 -81.71378 3605 ft 176 kts 212°
2026-05-06 20:39 41.50460 -81.72154 3394 ft 176 kts 213°
2026-05-06 20:40 41.49393 -81.72947 3176 ft 175 kts 217°
2026-05-06 20:40 41.48474 -81.73954 2998 ft 166 kts 229°
2026-05-06 20:40 41.47738 -81.75053 2829 ft 151 kts 234°
2026-05-06 20:40 41.47095 -81.76078 2590 ft 138 kts 233°
2026-05-06 20:41 41.46490 -81.77034 2400 ft 135 kts 234°
2026-05-06 20:41 41.45894 -81.77989 2180 ft 133 kts 234°
2026-05-06 20:41 41.45296 -81.78943 2008 ft 135 kts 234°
2026-05-06 20:41 41.44689 -81.79889 1789 ft 134 kts 233°
2026-05-06 20:42 41.44088 -81.80829 1631 ft 133 kts 234°
2026-05-06 20:42 41.43491 -81.81777 1434 ft 134 kts 234°
2026-05-06 20:42 41.42890 -81.82740 1252 ft 136 kts 232°
2026-05-06 20:42 41.42285 -81.83708 998 ft 136 kts 231°
2026-05-06 20:43 41.41673 -81.84681 813 ft 138 kts 231°
2026-05-06 20:43 41.41086 -81.85611 758 ft 117 kts 230°
2026-05-06 20:43 41.40722 -81.86190 759 ft 49 kts 230°
2026-05-06 20:43 41.40495 -81.86549 757 ft 32 kts 227°
2026-05-06 20:44 41.40355 -81.86649 757 ft 5 kts 186°
2026-05-06 20:44 41.40320 -81.86642 757 ft 0 kts 158°
2026-05-06 20:44 41.40309 -81.86634 757 ft 4 kts 151°
2026-05-06 20:44 41.40277 -81.86603 757 ft 9 kts 141°
2026-05-06 20:45 41.40199 -81.86520 756 ft 20 kts 141°
2026-05-06 20:45 41.40060 -81.86366 756 ft 29 kts 140°
2026-05-06 20:45 41.40013 -81.86181 757 ft 22 kts 50°
2026-05-06 20:45 41.40117 -81.86019 757 ft 24 kts 47°
2026-05-06 20:46 41.40275 -81.85930 757 ft 26 kts
2026-05-06 20:46 41.40396 -81.85774 760 ft 26 kts 50°
2026-05-06 20:46 41.40517 -81.85584 759 ft 28 kts 50°
2026-05-06 20:46 41.40629 -81.85404 759 ft 16 kts 58°
2026-05-06 20:47 41.40656 -81.85244 759 ft 19 kts 94°
2026-05-06 20:47 41.40644 -81.85052 759 ft 22 kts 95°